Regional Weather Roundup
Issued by NWS

Home | Current Version | Previous Version | Text Only | Print | Product List | Glossary Off
Versions: 1 2 3 4 5 6 7 8 9 10 11 12 13 14 15 16 17 18 19 20 21 22 23 24 25 26 27 28 29 30 31 32 33 34 35 36 37 38 39 40 41 42 43 44 45 46 47 48 49 50

000
ASUS43 KDTX 281210
RWRMI
MICHIGAN HOURLY REGIONAL WEATHER ROUNDUP
NATIONAL WEATHER SERVICE DETROIT/PONTIAC MI
800 AM EDT TUE MAR 28 2017

NOTE: "FAIR" INDICATES FEW OR NO CLOUDS BELOW 12,000 FEET WITH NO
SIGNIFICANT WEATHER AND/OR OBSTRUCTION TO VISIBILITY.

MIZ047>049-052>055-059>063-066>070-074>076-081>083-281300-
SOUTHEAST LOWER MICHIGAN

CITY           SKY/WX    TMP DP  RH WIND       PRES   REMARKS
ADRIAN         CLOUDY    46  43  89 N10       29.98R
6HR MIN TEMP:  46; 6HR MAX TEMP:  51;

ANN ARBOR      CLOUDY    43  42  97 N9        29.98R
BAD AXE        FOG       36  36 100 N7        30.03R VSB 3/4 WCI  30
6HR MIN TEMP:  35; 6HR MAX TEMP:  37;

CARO           CLOUDY    38  37  99 N10       30.02R FOG     WCI  30
DETROIT CITY   CLOUDY    42  39  89 N8        29.99R
6HR MIN TEMP:  41; 6HR MAX TEMP:  46;

DETROIT        CLOUDY    43  39  86 N8        29.99R
6HR MIN TEMP:  43; 6HR MAX TEMP:  53;

FLINT          CLOUDY    40  38  93 N8        30.02R WCI  34
6HR MIN TEMP:  40; 6HR MAX TEMP:  45;

GROSSE ILE     CLOUDY    42  39  88 N7        29.97R
6HR MIN TEMP:  41; 6HR MAX TEMP:  49;

HILLSDALE      CLOUDY    43  39  87 N9        29.98R
HOWELL         CLOUDY    40  38  94 N3        30.00R FOG
6HR MIN TEMP:  40; 6HR MAX TEMP:  46;


CITY           SKY/WX    TMP DP  RH WIND       PRES   REMARKS
JACKSON        CLOUDY    43  40  89 N10       30.00R
6HR MIN TEMP:  43; 6HR MAX TEMP:  49; 6HR PCP: TRACE;

LAMBERTVILLE   CLOUDY    45  42  90 E3        29.97R FOG
6HR MIN TEMP:  45; 6HR MAX TEMP:  54;

LANSING        CLOUDY    41  38  89 N9        30.02R FOG
6HR MIN TEMP:  41; 6HR MAX TEMP:  45;

LAPEER         CLOUDY    39  38  98 CALM      30.01R
6HR MIN TEMP:  39; 6HR MAX TEMP:  41;

MASON          CLOUDY    41  40  98 NE6       30.01R FOG
MONROE         CLOUDY    44  42  92 N8        29.97R
6HR MIN TEMP:  44; 6HR MAX TEMP:  53;

MT. CLEMENS    CLOUDY    40  40  99 N10       29.98R WCI  34
6HR MIN TEMP:  40; 6HR MAX TEMP:  44;

PONTIAC        CLOUDY    40  37  89 N6        29.98R
6HR MIN TEMP:  39; 6HR MAX TEMP:  48;

PORT HOPE        N/A     35  35 100 N9        30.01R WCI  28
6HR MIN TEMP:  35; 6HR MAX TEMP:  36;

PORT HURON     CLOUDY    37  36  93 N6        30.00R WCI  33
TRI CITIES     CLOUDY    39  38  96 N8        30.04R FOG     WCI  33
6HR MIN TEMP:  38; 6HR MAX TEMP:  40;

MIDLAND        CLOUDY    39  37  90 N5        30.04R
6HR MIN TEMP:  39; 6HR MAX TEMP:  40;

TROY           CLOUDY    41  37  86 N7        30.01R
SAGINAW HB     CLOUDY    37  36  93 N9        30.03R FOG     WCI  31
$$
MIZ043>046-050>051-056>058-064>065-071>073-077>080-281300-
SOUTHWEST LOWER MICHIGAN

CITY           SKY/WX    TMP DP  RH WIND       PRES   REMARKS
BATTLE CREEK   CLOUDY    43  41  93 NE8       30.01R
6HR MIN TEMP:  43; 6HR MAX TEMP:  47;

BENTON HARBOR  CLOUDY    39  37  92 VRB7      30.04R FOG     WCI  34
6HR MIN TEMP:  37; 6HR MAX TEMP:  39;

BIG RAPIDS     CLOUDY    37  35  94 N6        30.04R FOG     WCI  32
6HR MIN TEMP:  37; 6HR MAX TEMP:  38;

COLDWATER      CLOUDY    45  42  91 N8        29.99R
6HR MIN TEMP:  45; 6HR MAX TEMP:  49;

FREMONT        CLOUDY    38  36  94 NE6       30.04R WCI  33
HOLLAND        CLOUDY    41  38  89 N6        30.04R
6HR MIN TEMP:  40; 6HR MAX TEMP:  41;

GRAND RAPIDS   DRIZZLE   40  39  97 N10       30.02R WCI  33
6HR MIN TEMP:  40; 6HR MAX TEMP:  45; 6HR PCP: TRACE;

IONIA          CLOUDY    38  38  97 N7        30.02R FOG     WCI  33
6HR MIN TEMP:  38; 6HR MAX TEMP:  43;

KALAMAZOO      CLOUDY    44  39  82 N7        30.02R
6HR MIN TEMP:  44; 6HR MAX TEMP:  45;

LUDINGTON      CLOUDY    36  35  96 N6        30.07R WCI  31
6HR MIN TEMP:  36; 6HR MAX TEMP:  37;

MARSHALL       CLOUDY    42  42  98 CALM      29.99R
6HR MIN TEMP:  42; 6HR MAX TEMP:  47;

MOUNT PLEASANT CLOUDY    38  36  93 N5        30.04R FOG     WCI  34
6HR MIN TEMP:  38; 6HR MAX TEMP:  40;

MUSKEGON       CLOUDY    40  36  86 N6        30.06R
6HR MIN TEMP:  39; 6HR MAX TEMP:  40;

SOUTH HAVEN    CLOUDY    38  37  99 N3        30.03R FOG
$$
MIZ016>042-281300-
NORTHERN LOWER MICHIGAN

CITY           SKY/WX    TMP DP  RH WIND       PRES   REMARKS
ALPENA         CLOUDY    37  36  96 N9        30.08R WCI  30
6HR MIN TEMP:  36; 6HR MAX TEMP:  37;

BEAVER ISLAND  CLOUDY    33  33 100 N6        30.11R WCI  28
6HR MIN TEMP:  31; 6HR MAX TEMP:  33;

BELLAIRE       CLOUDY    34  33  95 CALM      30.10R FOG
6HR MIN TEMP:  34; 6HR MAX TEMP:  36;

CADILLAC       FOG       34  33  96 N5        30.04R VSB 1/2 WCI  30
CHARLEVOIX     CLOUDY    34  34 100 N3        30.13R FOG
6HR MIN TEMP:  33; 6HR MAX TEMP:  34;

FRANKFORT      CLOUDY    34  32  94 CALM      30.09R FOG
GAYLORD        FOG       35  32  88 NE5       30.06R VSB 1/4 WCI  31
6HR MIN TEMP:  35; 6HR MAX TEMP:  36;

GRAYLING       CLOUDY    34  34 100 VRB5      30.07R FOG     WCI  30
HARBOR SPRINGS CLOUDY    33  33 100 N3        30.09R FOG
HOUGHTON LAKE  CLOUDY    36  34  92 N7        30.05R WCI  30
6HR MIN TEMP:  35; 6HR MAX TEMP:  36;

MANISTEE       CLOUDY    37  34  89 NE3       30.08R
OSCODA         CLOUDY    38  37  97 N5        30.05R WCI  35
6HR MIN TEMP:  38; 6HR MAX TEMP:  38;

PELLSTON       FOG       35  32  88 N6        30.10R VSB 1   WCI  30
6HR MIN TEMP:  34; 6HR MAX TEMP:  35;

ROGERS CITY    CLOUDY    36  34  93 N7        30.10R WCI  30
TRAVERSE CITY  DRZL/FOG  35  33  92 N8        30.09R VSB 3/4 WCI  29
6HR MIN TEMP:  35; 6HR MAX TEMP:  37; 6HR PCP: TRACE;

$$
MIZ007>008-015-281300-
EASTERN UPPER MICHIGAN

CITY           SKY/WX    TMP DP  RH WIND       PRES   REMARKS
KINROSS        CLOUDY    33  32  96 N5        30.11R WCI  29
6HR MIN TEMP:  32; 6HR MAX TEMP:  34;

MACKINAC ISLAN CLOUDY    32  32 100 N3        30.10R
6HR MIN TEMP:  32; 6HR MAX TEMP:  33;

NEWBERRY       FOG       31  31  98 NE3       30.11R VSB 1/4
6HR MIN TEMP:  31; 6HR MAX TEMP:  31;

S. S. MARIE    CLOUDY    34  31  88 N3        30.10R
6HR MIN TEMP:  34; 6HR MAX TEMP:  38;

MUNISING         N/A     30  30 100 CALM      30.11R
6HR MIN TEMP:  30; 6HR MAX TEMP:  32;

$$
MIZ004>006-011>014-085-281300-
CENTRAL UPPER MICHIGAN

CITY           SKY/WX    TMP DP  RH WIND       PRES   REMARKS
MANISTIQUE     FOG       30  30 100 NE3       30.11S VSB 1/4
ESCANABA       CLEAR     26  26 100 CALM      30.12R
6HR MIN TEMP:  23; 6HR MAX TEMP:  29;

MENOMINEE        N/A    N/A N/A N/A MISG        N/A
SAWYER-GWINN   CLEAR     27  25  93 CALM      30.09S
$$
MIZ001>003-009>011-084-281300-
WESTERN UPPER MICHIGAN

CITY           SKY/WX    TMP DP  RH WIND       PRES   REMARKS
IRON MOUNTAIN  CLEAR     23  21  92 N6        30.09S WCI  16
6HR MIN TEMP:  23; 6HR MAX TEMP:  29;

HOUGHTON       CLEAR     30  25  81 NW9       30.09R WCI  22
6HR MIN TEMP:  29; 6HR MAX TEMP:  33;

COPPER HARBOR    N/A     30  28  92 CALM      30.09R
6HR MIN TEMP:  29; 6HR MAX TEMP:  36;

IRONWOOD       CLEAR     22  20  92 W3        30.14R
6HR MIN TEMP:  22; 6HR MAX TEMP:  26;

$$

ABBREVIATIONS USED IN REMARKS
   TC - TEMPERATURE IN CELSIUS
  WCI - WIND CHILL INDEX
   HX - HEAT INDEX
  VSB - VISIBILITY




USA.gov is the U.S. government's official web portal to all federal, state and local government web resources and services.